WX1N Weather Reports


Display with metric or nautical units.
time (UTC)temp
F
wind
direction
speed
MPH
gust
MPH
rain 1hr
in
rain 24hr
in
rain mn
in
humidity
%
barometer
mb
20260509031003 37 0 0.0 0.0 0.00 0.00 0.00 86 1011.7
20260509030502 38 0 0.0 0.0 0.00 0.00 0.00 85 1011.7
20260509030003 38 0 0.0 0.0 0.00 0.00 0.00 85 1011.7
20260509025502 39 0 0.0 0.0 0.00 0.00 0.00 84 1011.6
20260509025003 39 0 0.0 0.0 0.00 0.00 0.00 84 1011.6
20260509024502 40 0 0.0 0.0 0.00 0.00 0.00 83 1011.4
20260509024002 40 0 0.0 0.0 0.00 0.00 0.00 83 1011.4
20260509022503 41 0 0.0 0.0 0.00 0.00 0.00 81 1011.4
20260509022002 41 0 0.0 0.0 0.00 0.00 0.00 79 1011.3
20260509021503 41 0 0.0 0.0 0.00 0.00 0.00 79 1011.3
20260509021002 42 0 0.0 0.0 0.00 0.00 0.00 78 1011.2
20260509020503 42 0 0.0 0.0 0.00 0.00 0.00 77 1011.1
20260509015502 42 0 0.0 0.0 0.00 0.00 0.00 80 1011.1
20260509015003 43 0 0.0 0.0 0.00 0.00 0.00 78 1011.0
20260509014502 43 0 0.0 0.0 0.00 0.00 0.00 77 1010.9
20260509014003 44 0 0.0 0.0 0.00 0.00 0.00 79 1010.9
20260509013503 44 0 0.0 0.0 0.00 0.00 0.00 77 1010.8
20260509013002 44 0 0.0 0.0 0.00 0.00 0.00 75 1010.7
20260509012503 44 0 0.0 0.0 0.00 0.00 0.00 74 1010.6
20260509012002 44 0 0.0 0.0 0.00 0.00 0.00 74 1010.6
20260509011503 44 0 0.0 0.0 0.00 0.00 0.00 72 1010.5
20260509010502 45 0 0.0 0.0 0.00 0.00 0.00 72 1010.4
20260509010003 46 0 0.0 0.0 0.00 0.00 0.00 71 1010.3
20260509005502 46 0 0.0 0.0 0.00 0.00 0.00 70 1010.1
20260509005003 46 0 0.0 0.0 0.00 0.00 0.00 68 1010.0
20260509004502 46 0 0.0 0.0 0.00 0.00 0.00 69 1010.0
20260509004002 46 0 0.0 0.0 0.00 0.00 0.00 69 1009.9
20260509003503 47 0 0.0 0.0 0.00 0.00 0.00 67 1009.8
20260509003002 47 0 0.0 0.0 0.00 0.00 0.00 66 1009.7
20260509002503 47 0 0.0 0.0 0.00 0.00 0.00 66 1009.6
20260509002002 48 0 0.0 0.0 0.00 0.00 0.00 64 1009.6
20260509001502 48 0 0.0 0.0 0.00 0.00 0.00 63 1009.6
20260509000502 49 0 0.0 0.0 0.00 0.00 0.00 60 1009.4
20260509000003 50 0 0.0 0.0 0.00 0.00 0.00 59 1009.4
20260508235502 50 0 0.0 0.0 0.00 0.00 0.00 58 1009.4
20260508235003 50 0 0.0 0.0 0.00 0.00 0.00 57 1009.3
20260508234503 50 0 0.0 0.0 0.00 0.00 0.00 57 1009.3
20260508234002 50 0 0.0 0.0 0.00 0.00 0.00 56 1009.2
20260508233503 50 0 0.0 0.0 0.00 0.00 0.00 56 1009.1
20260508233002 50 0 0.0 0.0 0.00 0.00 0.00 56 1009.1
20260508232503 51 0 0.0 0.0 0.00 0.00 0.00 57 1009.0
20260508232002 51 0 0.0 0.0 0.00 0.00 0.00 57 1009.0
20260508231502 51 0 0.0 0.0 0.00 0.00 0.00 57 1009.0
20260508231003 51 0 0.0 0.0 0.00 0.00 0.00 58 1008.9
20260508230502 51 0 0.0 0.0 0.00 0.00 0.00 58 1008.8
20260508230003 51 0 0.0 0.0 0.00 0.00 0.00 58 1008.8
20260508225502 51 0 0.0 0.0 0.00 0.00 0.00 58 1008.7
20260508225002 52 0 0.0 0.0 0.00 0.00 0.00 57 1008.9
20260508224503 52 0 0.0 0.0 0.00 0.00 0.00 55 1008.9
20260508224002 52 0 0.0 0.0 0.00 0.00 0.00 55 1008.9
20260508223503 52 0 0.0 0.0 0.00 0.00 0.00 54 1008.9
20260508223002 52 0 0.0 0.0 0.00 0.00 0.00 54 1008.7
20260508222503 52 0 0.0 0.0 0.00 0.00 0.00 52 1008.7
20260508222002 52 0 0.0 0.0 0.00 0.00 0.00 53 1008.6
20260508221502 53 0 0.0 0.0 0.00 0.00 0.00 52 1008.6
20260508221003 53 0 0.0 0.0 0.00 0.00 0.00 51 1008.5
20260508220502 53 0 0.0 0.0 0.00 0.00 0.00 51 1008.5
20260508220003 53 0 0.0 0.0 0.00 0.00 0.00 51 1008.5
20260508215502 53 0 0.0 0.0 0.00 0.00 0.00 50 1008.5
20260508215003 53 0 0.0 0.0 0.00 0.00 0.00 50 1008.4
20260508214003 55 0 0.0 0.0 0.00 0.00 0.00 45 1008.2
20260508213502 57 0 0.0 0.0 0.00 0.00 0.00 41 1008.1
20260508213003 57 0 0.0 0.0 0.00 0.00 0.00 40 1008.0
20260508212502 56 0 0.0 0.0 0.00 0.00 0.00 40 1008.1
20260508212002 55 0 0.0 0.0 0.00 0.00 0.00 41 1008.1
20260508211503 55 0 0.0 0.0 0.00 0.00 0.00 39 1008.1
20260508211002 56 0 0.0 0.0 0.00 0.00 0.00 38 1008.0
20260508210002 57 0 0.0 0.0 0.00 0.00 0.00 35 1008.0
20260508204503 58 0 0.0 0.0 0.00 0.00 0.00 35 1007.7
20260508204002 57 0 0.0 0.0 0.00 0.00 0.00 39 1007.7
20260508203503 57 0 0.0 0.0 0.00 0.00 0.00 35 1007.6
20260508203003 58 0 0.0 0.0 0.00 0.00 0.00 36 1007.6
20260508202503 57 0 0.0 0.0 0.00 0.00 0.00 39 1007.6
20260508202003 57 0 0.0 0.0 0.00 0.00 0.00 36 1007.6
20260508201003 57 0 0.0 0.0 0.00 0.00 0.00 35 1007.5
20260508200502 58 0 0.0 0.0 0.00 0.00 0.00 39 1007.5
20260508200003 57 0 0.0 0.0 0.00 0.00 0.00 40 1007.5
20260508195502 57 0 0.0 0.0 0.00 0.00 0.00 39 1007.6
20260508195002 58 0 0.0 0.0 0.00 0.00 0.00 37 1007.6
20260508194003 56 0 0.0 0.0 0.00 0.00 0.00 37 1007.7
20260508193503 56 0 0.0 0.0 0.00 0.00 0.00 41 1007.7
20260508193003 56 0 0.0 0.0 0.00 0.00 0.00 38 1007.7
20260508192002 55 0 0.0 0.0 0.00 0.00 0.00 40 1007.8
20260508191503 55 0 0.0 0.0 0.00 0.00 0.00 39 1007.7
20260508191002 55 0 0.0 0.0 0.00 0.00 0.00 40 1007.7
20260508190503 56 0 0.0 0.0 0.00 0.00 0.00 37 1007.7
20260508190003 56 0 0.0 0.0 0.00 0.00 0.00 37 1007.7
20260508185003 57 0 0.0 0.0 0.00 0.00 0.00 35 1007.7
20260508184503 58 0 0.0 0.0 0.00 0.00 0.00 36 1007.8
20260508184003 58 0 0.0 0.0 0.00 0.00 0.00 35 1007.7
20260508183502 58 0 0.0 0.0 0.00 0.00 0.00 38 1007.8
20260508182502 56 0 0.0 0.0 0.00 0.00 0.00 36 1007.9
20260508182003 56 0 0.0 0.0 0.00 0.00 0.00 38 1008.0
20260508181503 57 0 0.0 0.0 0.00 0.00 0.00 35 1008.1
20260508181002 57 0 0.0 0.0 0.00 0.00 0.00 39 1008.0
20260508180503 57 0 0.0 0.0 0.00 0.00 0.00 41 1008.0
20260508180003 58 0 0.0 0.0 0.00 0.00 0.00 36 1008.0
20260508175503 58 0 0.0 0.0 0.00 0.00 0.00 38 1008.1
20260508175003 57 0 0.0 0.0 0.00 0.00 0.00 36 1008.1
20260508174502 57 0 0.0 0.0 0.00 0.00 0.00 36 1008.2
20260508174003 57 0 0.0 0.0 0.00 0.00 0.00 40 1008.2
20260508173502 57 0 0.0 0.0 0.00 0.00 0.00 40 1008.2
20260508173003 57 0 0.0 0.0 0.00 0.00 0.00 41 1008.2
20260508172503 57 0 0.0 0.0 0.00 0.00 0.00 37 1008.3
20260508172003 56 0 0.0 0.0 0.00 0.00 0.00 39 1008.3
20260508171503 56 0 0.0 0.0 0.00 0.00 0.00 42 1008.3
20260508171002 55 0 0.0 0.0 0.00 0.00 0.00 40 1008.3
20260508170503 54 0 0.0 0.0 0.00 0.00 0.00 45 1008.2
20260508170003 54 0 0.0 0.0 0.00 0.00 0.00 40 1008.4
20260508165503 54 0 0.0 0.0 0.00 0.00 0.00 41 1008.4
20260508165004 54 0 0.0 0.0 0.00 0.00 0.00 40 1008.5
20260508164502 54 0 0.0 0.0 0.00 0.00 0.00 38 1008.5
20260508164003 54 0 0.0 0.0 0.00 0.00 0.00 41 1008.6
20260508163503 53 0 0.0 0.0 0.00 0.00 0.00 40 1008.5
20260508163002 53 0 0.0 0.0 0.00 0.00 0.00 38 1008.6
20260508162503 54 0 0.0 0.0 0.00 0.00 0.00 38 1008.6
20260508162002 54 0 0.0 0.0 0.00 0.00 0.00 39 1008.6
20260508161503 53 0 0.0 0.0 0.00 0.00 0.00 39 1008.5
20260508161002 53 0 0.0 0.0 0.00 0.00 0.00 39 1008.6
20260508160503 54 0 0.0 0.0 0.00 0.00 0.00 38 1008.6
20260508160003 54 0 0.0 0.0 0.00 0.00 0.00 39 1008.5
20260508155502 53 0 0.0 0.0 0.00 0.00 0.00 38 1008.5
20260508155003 54 0 0.0 0.0 0.00 0.00 0.00 36 1008.6
20260508154502 55 0 0.0 0.0 0.00 0.00 0.00 39 1008.4
20260508154003 55 0 0.0 0.0 0.00 0.00 0.00 38 1008.3
20260508153502 54 0 0.0 0.0 0.00 0.00 0.00 39 1008.2
20260508153003 54 0 0.0 0.0 0.00 0.00 0.00 37 1008.2
20260508152003 55 0 0.0 0.0 0.00 0.00 0.00 39 1008.3
20260508151503 54 0 0.0 0.0 0.00 0.00 0.00 38 1008.3
20260508151003 54 0 0.0 0.0 0.00 0.00 0.00 35 1008.3
20260508150003 56 0 0.0 0.0 0.00 0.00 0.00 38 1008.3
20260508145503 55 0 0.0 0.0 0.00 0.00 0.00 36 1008.3
20260508145003 55 0 0.0 0.0 0.00 0.00 0.00 36 1008.4
20260508144503 54 0 0.0 0.0 0.00 0.00 0.00 41 1008.6
20260508144003 54 0 0.0 0.0 0.00 0.00 0.00 39 1008.4
20260508143502 55 0 0.0 0.0 0.00 0.00 0.00 40 1008.4
20260508142503 52 0 0.0 0.0 0.00 0.00 0.00 40 1008.5
20260508142003 53 0 0.0 0.0 0.00 0.00 0.00 38 1008.6
20260508141503 54 0 0.0 0.0 0.00 0.00 0.00 41 1008.6
20260508141002 53 0 0.0 0.0 0.00 0.00 0.00 41 1008.5
20260508140503 53 0 0.0 0.0 0.00 0.00 0.00 39 1008.7
20260508140003 53 0 0.0 0.0 0.00 0.00 0.00 39 1008.8
20260508135503 53 0 0.0 0.0 0.00 0.00 0.00 45 1008.8
20260508134503 53 0 0.0 0.0 0.00 0.00 0.00 46 1008.8
20260508134003 52 0 0.0 0.0 0.00 0.00 0.00 45 1008.8
20260508133502 53 0 0.0 0.0 0.00 0.00 0.00 43 1008.8
20260508133003 52 0 0.0 0.0 0.00 0.00 0.00 44 1008.7
20260508132502 52 0 0.0 0.0 0.00 0.00 0.00 44 1008.7
20260508132003 52 0 0.0 0.0 0.00 0.00 0.00 48 1008.7
20260508131502 52 0 0.0 0.0 0.00 0.00 0.00 44 1008.7
20260508131003 52 0 0.0 0.0 0.00 0.00 0.00 50 1008.8
20260508130503 51 0 0.0 0.0 0.00 0.00 0.00 48 1008.8
20260508125503 50 0 0.0 0.0 0.00 0.00 0.00 59 1008.9
20260508125003 50 0 0.0 0.0 0.00 0.00 0.00 57 1008.9
20260508124503 49 0 0.0 0.0 0.00 0.00 0.00 56 1008.8
20260508124002 48 0 0.0 0.0 0.00 0.00 0.00 63 1008.9
20260508123503 48 0 0.0 0.0 0.00 0.00 0.00 69 1009.0
20260508123003 46 0 0.0 0.0 0.00 0.00 0.00 69 1009.0
20260508122503 46 0 0.0 0.0 0.00 0.00 0.00 71 1009.0
20260508122003 45 0 0.0 0.0 0.00 0.00 0.00 71 1009.1
20260508121502 44 0 0.0 0.0 0.00 0.00 0.00 75 1009.1
20260508120502 43 0 0.0 0.0 0.00 0.00 0.00 78 1009.1
20260508120003 42 0 0.0 0.0 0.00 0.00 0.00 79 1009.2
20260508115503 42 0 0.0 0.0 0.00 0.00 0.00 80 1009.2
20260508115003 41 0 0.0 0.0 0.00 0.00 0.00 83 1009.2
20260508114003 40 0 0.0 0.0 0.00 0.00 0.00 86 1009.1
20260508113503 40 0 0.0 0.0 0.00 0.00 0.00 87 1009.1
20260508113004 39 0 0.0 0.0 0.00 0.00 0.00 86 1009.1
20260508112503 38 0 0.0 0.0 0.00 0.00 0.00 87 1009.0
20260508112003 38 0 0.0 0.0 0.00 0.00 0.00 87 1009.0
20260508111503 37 0 0.0 0.0 0.00 0.00 0.00 88 1009.0
20260508111003 37 0 0.0 0.0 0.00 0.00 0.00 88 1009.0
20260508110503 36 0 0.0 0.0 0.00 0.00 0.00 88 1009.0
20260508110003 36 0 0.0 0.0 0.00 0.00 0.00 88 1009.1
20260508105003 35 0 0.0 0.0 0.00 0.00 0.00 88 1009.0
20260508104503 34 0 0.0 0.0 0.00 0.00 0.00 88 1008.9
20260508104002 33 0 0.0 0.0 0.00 0.00 0.00 88 1008.8
20260508103503 33 0 0.0 0.0 0.00 0.00 0.00 88 1008.6
20260508103003 33 0 0.0 0.0 0.00 0.00 0.00 88 1008.5
20260508102503 33 0 0.0 0.0 0.00 0.00 0.00 87 1008.5
20260508102003 33 0 0.0 0.0 0.00 0.00 0.00 87 1008.4
20260508101503 32 0 0.0 0.0 0.00 0.00 0.00 87 1008.4
20260508101003 32 0 0.0 0.0 0.00 0.00 0.00 88 1008.4
20260508100503 32 0 0.0 0.0 0.00 0.00 0.00 88 1008.4
20260508100003 32 0 0.0 0.0 0.00 0.00 0.00 88 1008.4
20260508095502 32 0 0.0 0.0 0.00 0.00 0.00 88 1008.3
20260508095003 33 0 0.0 0.0 0.00 0.00 0.00 87 1008.2
20260508094503 33 0 0.0 0.0 0.00 0.00 0.00 87 1008.3
20260508093503 32 0 0.0 0.0 0.00 0.00 0.00 87 1008.1
20260508093003 31 0 0.0 0.0 0.00 0.00 0.00 87 1008.1
20260508092503 31 0 0.0 0.0 0.00 0.00 0.00 88 1008.2
20260508092003 31 0 0.0 0.0 0.00 0.00 0.00 88 1008.1
20260508091503 31 0 0.0 0.0 0.00 0.00 0.00 88 1008.1
20260508090503 32 0 0.0 0.0 0.00 0.00 0.00 88 1008.0
20260508090003 32 0 0.0 0.0 0.00 0.00 0.00 87 1008.0
20260508085503 32 0 0.0 0.0 0.00 0.00 0.00 86 1008.0
20260508085003 32 0 0.0 0.0 0.00 0.00 0.00 85 1008.0
20260508084503 32 0 0.0 0.0 0.00 0.00 0.00 84 1008.1
20260508084003 32 0 0.0 0.0 0.00 0.00 0.00 83 1008.1
20260508083503 32 0 0.0 0.0 0.00 0.00 0.00 82 1008.1
20260508083003 31 0 0.0 0.0 0.00 0.00 0.00 83 1008.1
20260508082503 30 0 0.0 0.0 0.00 0.00 0.00 83 1008.0
20260508082003 30 0 0.0 0.0 0.00 0.00 0.00 83 1007.9
20260508081503 30 0 0.0 0.0 0.00 0.00 0.00 83 1007.9
20260508080003 29 0 0.0 0.0 0.00 0.00 0.00 84 1007.8
20260508074503 30 0 0.0 0.0 0.00 0.00 0.00 84 1007.6
20260508074003 30 0 0.0 0.0 0.00 0.00 0.00 84 1007.5
20260508073502 30 0 0.0 0.0 0.00 0.00 0.00 84 1007.5
20260508073003 30 0 0.0 0.0 0.00 0.00 0.00 84 1007.5
20260508072003 30 0 0.0 0.0 0.00 0.00 0.00 84 1007.5
20260508071502 30 0 0.0 0.0 0.00 0.00 0.00 84 1007.6
20260508071003 30 0 0.0 0.0 0.00 0.00 0.00 84 1007.6
20260508070502 30 0 0.0 0.0 0.00 0.00 0.00 85 1007.5
20260508070003 31 0 0.0 0.0 0.00 0.00 0.00 85 1007.6
20260508065503 31 0 0.0 0.0 0.00 0.00 0.00 85 1007.5
20260508064504 31 0 0.0 0.0 0.00 0.00 0.00 85 1007.6
20260508063502 31 0 0.0 0.0 0.00 0.00 0.00 86 1007.7
20260508063003 31 0 0.0 0.0 0.00 0.00 0.00 85 1007.7
20260508062502 32 0 0.0 0.0 0.00 0.00 0.00 85 1007.8
20260508062003 32 0 0.0 0.0 0.00 0.00 0.00 86 1007.7
20260508061503 32 0 0.0 0.0 0.00 0.00 0.00 86 1007.7
20260508061003 32 0 0.0 0.0 0.00 0.00 0.00 86 1007.7
20260508060503 32 0 0.0 0.0 0.00 0.00 0.00 87 1007.8
20260508060003 32 0 0.0 0.0 0.00 0.00 0.00 87 1007.7
20260508055503 32 0 0.0 0.0 0.00 0.00 0.00 86 1007.6
20260508055003 33 0 0.0 0.0 0.00 0.00 0.00 86 1007.5
20260508054503 33 0 0.0 0.0 0.00 0.00 0.00 85 1007.4
20260508054002 33 0 0.0 0.0 0.00 0.00 0.00 86 1007.3
20260508053503 33 0 0.0 0.0 0.00 0.00 0.00 86 1007.3
20260508053003 33 0 0.0 0.0 0.00 0.00 0.00 86 1007.4
20260508052503 33 0 0.0 0.0 0.00 0.00 0.00 86 1007.7
20260508052003 33 0 0.0 0.0 0.00 0.00 0.00 86 1007.8
20260508051503 33 0 0.0 0.0 0.00 0.00 0.00 86 1007.9
20260508051003 33 0 0.0 0.0 0.00 0.00 0.00 86 1008.0
20260508050503 33 0 0.0 0.0 0.00 0.00 0.00 86 1008.0
20260508045503 33 0 0.0 0.0 0.00 0.00 0.00 86 1008.0
20260508045003 32 0 0.0 0.0 0.00 0.00 0.00 87 1007.9
20260508044003 32 0 0.0 0.0 0.00 0.00 0.00 88 1007.9
20260508043503 33 0 0.0 0.0 0.00 0.00 0.00 88 1007.9
20260508043003 33 0 0.0 0.0 0.00 0.00 0.00 88 1007.9
20260508042504 33 0 0.0 0.0 0.00 0.00 0.00 88 1007.8
20260508042003 34 0 0.0 0.0 0.00 0.00 0.00 88 1007.9
20260508041504 34 0 0.0 0.0 0.00 0.00 0.00 88 1008.0
20260508041003 34 0 0.0 0.0 0.00 0.00 0.00 88 1008.0
20260508040503 34 0 0.0 0.0 0.00 0.00 0.00 88 1008.1
20260508040004 34 0 0.0 0.0 0.00 0.00 0.00 88 1008.0
20260508035503 34 0 0.0 0.0 0.00 0.00 0.00 88 1008.0
20260508035003 34 0 0.0 0.0 0.00 0.00 0.00 88 1008.0
20260508034503 34 0 0.0 0.0 0.00 0.00 0.00 88 1008.0
20260508034003 34 0 0.0 0.0 0.00 0.00 0.00 88 1007.9
20260508033503 34 0 0.0 0.0 0.00 0.00 0.00 88 1007.9
20260508033003 35 0 0.0 0.0 0.00 0.00 0.00 88 1008.0
20260508032502 35 0 0.0 0.0 0.00 0.00 0.00 88 1008.0
20260508032003 35 0 0.0 0.0 0.00 0.00 0.00 88 1007.9